Location: South Range
(44.4886°N, 65.7879°W)
Time: 02:24:49
(UTC-03:00)

Iridium 56 - Visible Passes

Search period start: 22 August 2017 00:00
Search period end: 01 September 2017 00:00
Orbit: 776 x 779 km, 86.4° (Epoch: 21 August)

Date Brightness Start Highest point End Pass type
(mag) Time Alt. Az. Time Alt. Az. Time Alt. Az.
22 Aug 7.2 00:17:04 25° NE 00:17:04 25° NE 00:19:47 10° NNE visible
22 Aug 7.2 01:57:32 27° NW 01:57:32 27° NW 02:00:34 10° NNW visible
22 Aug 7.6 23:43:40 16° NE 23:43:40 16° NE 23:45:26 10° NE visible
23 Aug 6.9 01:24:09 36° NNW 01:24:09 36° NNW 01:27:21 10° N visible
24 Aug 6.8 00:50:45 37° N 00:50:45 37° N 00:53:52 10° N visible
24 Aug 7.9 02:31:13 13° NW 02:31:13 13° NW 02:32:35 10° NW visible
25 Aug 7.0 00:17:20 29° NE 00:17:20 29° NE 00:20:09 10° NNE visible
25 Aug 7.6 01:57:48 20° NW 01:57:48 20° NW 02:00:18 10° NNW visible
25 Aug 7.4 23:43:56 20° NE 23:43:56 20° NE 23:46:06 10° NNE visible
26 Aug 7.2 01:24:24 29° NNW 01:24:24 29° NNW 01:27:18 10° N visible
26 Aug 7.8 23:10:31 12° NE 23:10:31 12° NE 23:11:24 10° NE visible
27 Aug 7.0 00:50:59 35° N 00:50:59 35° N 00:53:58 10° N visible
28 Aug 7.0 00:17:34 32° NNE 00:17:34 32° NNE 00:20:23 10° N visible
28 Aug 7.9 01:58:02 15° NW 01:58:02 15° NW 01:59:47 10° NNW visible
28 Aug 7.2 23:44:08 24° NE 23:44:08 24° NE 23:46:32 10° NNE visible
29 Aug 7.5 01:24:36 23° NW 01:24:36 23° NW 01:27:06 10° NNW visible
29 Aug 7.6 23:10:42 16° NE 23:10:42 16° NE 23:12:18 10° NNE visible
30 Aug 7.2 00:51:11 30° NNW 00:51:11 30° NNW 00:53:58 10° N visible
31 Aug 7.0 00:17:44 33° N 00:17:44 33° N 00:20:32 10° N visible
31 Aug 8.2 01:58:13 11° NW 01:58:13 11° NW 01:58:43 10° NW visible
31 Aug 7.1 23:44:18 28° NNE 23:44:18 28° NNE 23:46:51 10° NNE visible
